EW8046 Weather Reports


time (UTC)temp
F
wind
direction
speed
knots
gust
knots
rain 1hr
in
rain 24hr
in
rain mn
in
humidity
%
barometer
mb
20260504001603 72 350 3.5 6.1 0.00 0.00 0.00 53 1010.1
20260504001102 73 327 4.3 6.1 0.00 0.00 0.00 52 1010.1
20260504000601 74 349 6.1 10.4 0.00 0.00 0.00 50 1010.1
20260503235102 74 25 7.0 11.3 0.00 0.00 0.00 48 1010.3
20260503234602 74 0 6.1 9.6 0.00 0.00 0.00 50 1010.3
20260503234101 73 9 7.0 10.4 0.00 0.00 0.00 52 1010.3
20260503233602 74 13 7.0 10.4 0.00 0.00 0.00 51 1010.5
20260503233102 74 26 7.0 10.4 0.00 0.00 0.00 50 1010.6
20260503232601 74 26 7.0 10.4 0.00 0.00 0.00 50 1010.6
20260503232101 73 13 7.0 11.3 0.00 0.00 0.00 51 1010.7
20260503231603 73 17 6.1 11.3 0.00 0.00 0.00 50 1010.8
20260503231100 73 5 6.1 8.7 0.00 0.00 0.00 52 1010.8
20260503230100 73 11 6.1 9.6 0.00 0.00 0.00 52 1010.9
20260503225102 73 19 7.8 11.3 0.00 0.00 0.00 51 1011.1
20260503224602 73 19 7.0 11.3 0.00 0.00 0.00 50 1011.3
20260503224101 73 5 7.0 11.3 0.00 0.00 0.00 50 1011.3
20260503223601 73 32 7.0 9.6 0.00 0.00 0.00 51 1011.4
20260503223100 72 17 6.1 8.7 0.00 0.00 0.00 52 1011.5
20260503222600 72 5 5.2 8.7 0.00 0.00 0.00 52 1011.6
20260503221602 71 5 5.2 8.7 0.00 0.00 0.00 56 1011.6
20260503221101 70 355 5.2 8.7 0.00 0.00 0.00 56 1011.7
20260503220601 70 0 7.0 10.4 0.00 0.00 0.00 59 1011.7
20260503220101 69 11 7.0 10.4 0.00 0.00 0.00 59 1011.8
20260503215601 68 5 6.1 10.4 0.00 0.00 0.00 61 1011.8
20260503215101 67 342 3.5 9.6 0.00 0.00 0.00 62 1011.9
20260503214602 67 34 3.5 5.2 0.00 0.00 0.00 63 1011.8
20260503214103 68 9 3.5 4.3 0.00 0.00 0.00 63 1011.9
20260503213600 68 0 2.6 5.2 0.00 0.00 0.00 62 1011.9
20260503213100 69 5 2.6 5.2 0.00 0.00 0.00 60 1012.0
20260503212601 69 0 3.5 7.0 0.00 0.00 0.00 59 1012.0
20260503212101 69 5 3.5 7.0 0.00 0.00 0.00 58 1012.1
20260503211600 69 28 3.5 6.1 0.00 0.00 0.00 58 1012.1
20260503211101 69 29 2.6 5.2 0.00 0.00 0.00 58 1012.2
20260503210601 69 5 3.5 8.7 0.00 0.00 0.00 58 1012.2
20260503210101 69 9 4.3 8.7 0.00 0.00 0.00 56 1012.3
20260503205101 68 342 5.2 10.4 0.00 0.00 0.00 58 1012.5
20260503204602 67 15 4.3 10.4 0.00 0.00 0.00 58 1012.5
20260503204101 67 30 3.5 7.0 0.00 0.00 0.00 62 1012.6
20260503203601 66 27 2.6 6.1 0.00 0.00 0.00 63 1012.6
20260503203102 66 13 2.6 4.3 0.00 0.00 0.00 65 1012.7
20260503202601 66 344 2.6 7.0 0.00 0.00 0.00 65 1012.8
20260503202101 66 5 3.5 7.8 0.00 0.00 0.00 64 1012.8
20260503201603 66 17 3.5 11.3 0.00 0.00 0.00 64 1012.8
20260503201102 66 5 4.3 11.3 0.00 0.00 0.00 63 1012.9
20260503200600 66 82 3.5 8.7 0.00 0.00 0.00 63 1012.9
20260503200101 66 52 3.5 8.7 0.00 0.00 0.00 63 1012.9
20260503195601 66 21 3.5 7.8 0.00 0.00 0.00 63 1013.1
20260503195102 66 61 4.3 7.8 0.00 0.00 0.00 63 1013.2
20260503194603 66 37 3.5 8.7 0.00 0.00 0.00 63 1013.3
20260503194102 66 0 2.6 8.7 0.00 0.00 0.00 63 1013.3
20260503193601 66 336 2.6 7.0 0.00 0.00 0.00 64 1013.3
20260503193101 66 349 2.6 7.0 0.00 0.00 0.00 64 1013.4
20260503192601 67 307 3.5 8.7 0.00 0.00 0.00 64 1013.5
20260503192101 67 309 6.1 10.4 0.00 0.00 0.00 63 1013.5
20260503191102 67 17 7.0 10.4 0.00 0.00 0.00 64 1013.6
20260503190602 66 11 6.1 8.7 0.00 0.00 0.00 65 1013.7
20260503185601 65 342 5.2 9.6 0.00 0.00 0.00 66 1013.7
20260503184601 65 0 5.2 7.8 0.00 0.00 0.00 67 1013.8
20260503184100 64 348 5.2 7.8 0.00 0.00 0.00 67 1013.9
20260503183101 65 0 4.3 7.0 0.00 0.00 0.00 67 1014.0
20260503182601 65 355 4.3 7.8 0.00 0.00 0.00 65 1013.9
20260503182101 66 24 3.5 7.8 0.00 0.00 0.00 64 1013.9
20260503181601 66 5 3.5 6.1 0.00 0.00 0.00 63 1013.9
20260503181101 67 26 3.5 8.7 0.00 0.00 0.00 63 1014.0
20260503180601 66 71 3.5 8.7 0.00 0.00 0.00 63 1014.0
20260503175601 65 69 5.2 9.6 0.00 0.00 0.00 63 1014.0
20260503175102 65 40 4.3 9.6 0.00 0.00 0.00 64 1014.2
20260503174600 65 32 4.3 10.4 0.00 0.00 0.00 65 1014.2
20260503173600 64 99 4.3 7.0 0.00 0.00 0.00 66 1014.2
20260503173100 64 19 4.3 11.3 0.00 0.00 0.00 67 1014.3
20260503172101 64 27 2.6 7.8 0.00 0.00 0.00 67 1014.3
20260503171601 63 61 2.6 7.0 0.00 0.00 0.00 68 1014.3
20260503171101 63 5 1.7 4.3 0.00 0.00 0.00 69 1014.4
20260503150601 59 17 1.7 3.5 0.00 0.00 0.00 72 1014.6
20260503130600 56 69 0.9 7.0 0.00 0.00 0.00 75 1014.2
20260503110601 58 12 0.9 1.7 0.00 0.00 0.00 68 1014.4
20260503072029 61 239 0.0 0.9 0.00 0.00 0.00 65 1014.4
20260503071530 62 239 0.0 0.0 0.00 0.00 0.00 64 1014.5
20260503071029 62 239 0.0 0.9 0.00 0.00 0.00 63 1014.4
20260503070529 63 239 0.0 0.9 0.00 0.00 0.00 63 1014.4
20260503055029 69 39 5.2 10.4 0.00 0.00 0.00 47 1014.1
20260503054528 69 66 5.2 10.4 0.00 0.00 0.00 47 1014.1
20260503053528 69 27 4.3 7.8 0.00 0.00 0.00 48 1014.1
20260503053028 69 65 4.3 9.6 0.00 0.00 0.00 48 1014.1
20260503052529 69 80 4.3 9.6 0.00 0.00 0.00 47 1014.2
20260503051030 69 82 3.5 8.7 0.00 0.00 0.00 47 1014.1
20260503050529 69 71 4.3 8.7 0.00 0.00 0.00 46 1014.1
20260503050028 70 43 4.3 8.7 0.00 0.00 0.00 46 1014.1
20260503045529 70 76 4.3 8.7 0.00 0.00 0.00 46 1014.1
20260503044529 70 43 4.3 10.4 0.00 0.00 0.00 46 1014.1
20260503044028 70 78 5.2 10.4 0.00 0.00 0.00 46 1014.0
20260503043529 70 49 6.1 12.2 0.00 0.00 0.00 46 1014.0
20260503043029 70 43 6.1 12.2 0.00 0.00 0.00 46 1013.9
20260503042529 70 26 5.2 11.3 0.00 0.00 0.00 46 1013.9
20260503042029 70 41 6.1 13.0 0.00 0.00 0.00 46 1013.8
20260503041529 70 65 7.0 13.0 0.00 0.00 0.00 46 1013.8
20260503041029 70 40 6.1 11.3 0.00 0.00 0.00 47 1013.7
20260503040529 70 72 6.1 11.3 0.00 0.00 0.00 48 1013.7
20260503040030 69 44 6.1 11.3 0.00 0.00 0.00 48 1013.6
20260503035529 69 38 6.1 11.3 0.00 0.00 0.00 48 1013.6
20260503035030 69 22 5.2 10.4 0.00 0.00 0.00 49 1013.5
20260503034529 69 49 5.2 10.4 0.00 0.00 0.00 50 1013.4
20260503034028 69 22 5.2 10.4 0.00 0.00 0.00 51 1013.4
20260503033029 69 51 5.2 8.7 0.00 0.00 0.00 53 1013.3
20260503032530 69 10 5.2 10.4 0.00 0.00 0.00 53 1013.3
20260503032029 69 29 7.0 11.3 0.00 0.00 0.00 53 1013.2
20260503031528 69 13 7.0 11.3 0.00 0.00 0.00 53 1013.2
20260503031028 69 11 7.0 11.3 0.00 0.00 0.00 54 1013.2
20260503030530 69 10 8.7 13.0 0.00 0.00 0.00 54 1013.1
20260503030029 69 5 9.6 15.6 0.00 0.00 0.00 54 1013.1
20260503025529 69 9 8.7 15.6 0.00 0.00 0.00 53 1013.0
20260503024529 70 28 10.4 15.6 0.00 0.00 0.00 52 1013.1
20260503024028 70 20 10.4 17.4 0.00 0.00 0.00 51 1013.1
20260503023529 70 26 9.6 17.4 0.00 0.00 0.00 52 1013.1
20260503023030 69 23 9.6 14.8 0.00 0.00 0.00 54 1013.0
20260503022527 69 16 11.3 17.4 0.00 0.00 0.00 53 1013.0
20260503022021 69 0 13.0 17.4 0.00 0.00 0.00 52 1013.2
20260503021514 69 9 12.2 16.5 0.00 0.00 0.00 54 1013.1
20260503020510 69 5 11.3 16.5 0.00 0.00 0.00 54 1013.2
20260503020009 69 348 11.3 14.8 0.00 0.00 0.00 54 1013.1
20260503015510 69 15 10.4 13.9 0.00 0.00 0.00 54 1013.1
20260503015010 69 5 8.7 13.0 0.00 0.00 0.00 55 1013.2
20260503014510 68 5 7.8 12.2 0.00 0.00 0.00 55 1013.3
20260503014010 68 5 8.7 12.2 0.00 0.00 0.00 57 1013.3
20260503013510 69 355 8.7 12.2 0.00 0.00 0.00 55 1013.3
20260503013010 68 5 8.7 14.8 0.00 0.00 0.00 56 1013.3
20260503012510 67 0 9.6 14.8 0.00 0.00 0.00 58 1013.3
20260503012011 68 355 11.3 14.8 0.00 0.00 0.00 55 1013.4
20260503011510 68 355 11.3 14.8 0.00 0.00 0.00 54 1013.4
20260503011010 67 348 10.4 13.9 0.00 0.00 0.00 55 1013.4
20260503005510 67 15 9.6 13.0 0.00 0.00 0.00 57 1013.3
20260503005010 67 0 8.7 13.0 0.00 0.00 0.00 58 1013.3
20260503004508 67 15 7.8 12.2 0.00 0.00 0.00 60 1013.4
20260503004008 67 12 6.1 10.4 0.00 0.00 0.00 60 1013.4
20260503003506 67 0 6.1 9.6 0.00 0.00 0.00 60 1013.5
20260503003004 67 355 7.0 12.2 0.00 0.00 0.00 60 1013.4
20260503002504 67 13 9.6 13.9 0.00 0.00 0.00 59 1013.5
20260503002005 68 10 11.3 14.8 0.00 0.00 0.00 57 1013.6